Jordan Valley, OR

7:21 AM MDT on August 29, 2016 (GMT -0600)
Rome State

Weather History for KREO - March, 2013

Change the Weather History Date:

Saturday, March 23, 2013

  Actual Average Record
Temperature  
Mean Temperature 27 °F 41 °F  
Max Temperature 41 °F 55 °F 73 °F (2004)
Min Temperature 13 °F 27 °F 13 °F (2013)
Degree Days  
Heating Degree Days 38 24  
Month to date heating degree days 574 596  
Since 1 July heating degree days 5223 5330  
Cooling Degree Days 0 0  
Month to date cooling degree days 0 0  
Year to date cooling degree days 0 0  
Moisture  
Dew Point 9 °F    
Average Humidity 53    
Maximum Humidity 84    
Minimum Humidity 22    
Precipitation  
Precipitation 0.00 in 0.03 in 0.69 in (1961)
Month to date precipitation 0.15 0.70  
Year to date precipitation 0.93 2.11  
Sea Level Pressure  
Sea Level Pressure 30.28 in    
Wind  
Wind Speed 5 mph (East)    
Max Wind Speed 12 mph    
Max Gust Speed 15 mph    
T = Trace of Precipitation, MM = Missing Value Source: NWS Daily Summary

Daily Weather History Graph

Daily Weather History Graph

Search for Another Location

Airport or City:

Trip Planner

Search our weather history database for the weather conditions in past years. The results will help you decide how hot, cold, wet, or windy it might be!

Date:

Astronomy

Mar. 23, 2013 Rise Set
Actual Time 6:48 AM PDT 7:07 PM PDT
Civil Twilight 6:20 AM PDT 7:35 PM PDT
Nautical Twilight 5:47 AM PDT 8:08 PM PDT
Astronomical Twilight 5:13 AM PDT 8:43 PM PDT
Moon 3:35 PM PDT (3/23) 4:32 AM PDT (3/23)
Length of Visible Light 13h 15m
Length of Day
12h 18m
Waxing Gibbous, 86% of the Moon is Illuminated
Mar 23
Waxing Gibbous
Mar 27
Full
Apr 2
Last Quarter
Apr 10
New
Apr 18
First Quarter

Hourly Weather History & Observations

Time (PDT) Temp. Windchill Dew Point Humidity Pressure Visibility Wind Dir Wind Speed Gust Speed Precip Events Conditions
12:52 AM 19.9 °F 13.4 °F 10.0 °F 65% 30.27 in - NNW 4.6 mph - N/A   Unknown
1:52 AM 21.0 °F - 10.9 °F 65% 30.29 in - Calm Calm - N/A   Unknown
2:52 AM 15.1 °F 5.2 °F 10.0 °F 80% 30.30 in - South 6.9 mph - N/A   Unknown
3:52 AM 16.0 °F 8.8 °F 10.9 °F 81% 30.30 in - SSE 4.6 mph - N/A   Unknown
4:52 AM 12.9 °F 1.6 °F 9.0 °F 84% 30.31 in - SE 8.1 mph - N/A   Unknown
5:52 AM 15.1 °F 4.2 °F 10.0 °F 80% 30.32 in - SE 8.1 mph - N/A   Unknown
6:52 AM 15.1 °F 4.2 °F 10.0 °F 80% 30.35 in - SE 8.1 mph - N/A   Unknown
7:52 AM 21.0 °F 12.4 °F 14.0 °F 74% 30.35 in - SE 6.9 mph - N/A   Unknown
8:52 AM 26.1 °F - 16.0 °F 66% 30.35 in - Calm Calm - N/A   Unknown
9:52 AM 28.9 °F 25.2 °F 12.0 °F 49% 30.34 in - SW 3.5 mph - N/A   Unknown
10:52 AM 32.0 °F - 12.0 °F 44% 30.32 in - Calm Calm - N/A   Unknown
11:52 AM 33.1 °F 27.7 °F 8.1 °F 35% 30.32 in - SE 5.8 mph - N/A   Unknown
12:52 PM 35.1 °F - 8.1 °F 33% 30.29 in - Calm Calm - N/A   Unknown
1:52 PM 39.0 °F 33.4 °F 9.0 °F 29% 30.26 in - East 8.1 mph - N/A   Unknown
2:52 PM 39.9 °F 35.8 °F 7.0 °F 26% 30.25 in - NNE 5.8 mph - N/A   Unknown
3:52 PM 39.0 °F 36.8 °F 6.1 °F 26% 30.24 in - Variable 3.5 mph - N/A   Unknown
4:52 PM 39.9 °F 35.8 °F 6.1 °F 25% 30.23 in - North 5.8 mph - N/A   Unknown
5:52 PM 39.9 °F - 3.9 °F 22% 30.22 in - Calm Calm - N/A   Unknown
6:52 PM 37.0 °F 31.0 °F 8.1 °F 30% 30.22 in - NNE 8.1 mph - N/A   Unknown
7:52 PM 30.9 °F 22.8 °F 7.0 °F 37% 30.24 in - NNE 9.2 mph - N/A   Unknown
8:52 PM 26.1 °F 17.6 °F 6.1 °F 43% 30.25 in - ENE 8.1 mph - N/A   Unknown
9:52 PM 26.1 °F 19.4 °F 8.1 °F 47% 30.25 in - ENE 5.8 mph - N/A   Unknown
10:52 PM 18.0 °F - 5.0 °F 57% 30.27 in - Calm Calm - N/A   Unknown
11:52 PM 16.0 °F - 3.9 °F 59% 30.28 in - Calm Calm - N/A   Unknown